Showing default

YAOGAN-43 03C, 61619

Orbit data source: Space-Track

YAOGAN-43 03C, 61619 is a payload satellite owned by PLA GAD (CN) in LEO that was launched on Wed, 23 Oct 2024 UTC via a CHANG ZHENG 2C launch vehicle from the Xichang Space Center, China (XSC). Payload-class satellites include a variety of spacecraft equipped with specific instruments for various scientific and technological missions. These include communications satellites like Starlink; space stations such as the ISS; scientific satellites like the Hubble; Earth observation satellites from companies like Planet Labs, Umbra, and HawkEye 360; GPS; miniature CubeSats for education and research; and military/defense satellites.

Loading next visibility...
Identifier
61619, 2024-190C
Orbit
LEO
Country
Flag of CNCN / PRC
Related business
Manufacturer
SAST
Mission
Operational Defense Communications
Bus & Motor
Unknown
Mass
~300 kg wet, ~300 kg dry
Launch date (UTC)
2024-10-23 (1 year ago)
Launch vehicle
CHANG ZHENG 2C
Launch site
Xichang Space Center, China (XSC)
Object type
Payload
Rocket body
Debris
Shape & HBR
Box + 2 Pan, 2.5 m
Radar Cross Section
11.063 m², Large (>1 m²)

Expand to show TLE details & history
Last TLE update: 10 hours ago

TLE from 10 hours ago
0 YAOGAN-43 03C
1 61619U 24190C   25294.90758704  .00005786  00000-0  24128-3 0  9997
2 61619  34.9964 256.6662 0006042 342.1559  17.8943 15.23021566 55478
Epoch: 2025-10-21T21:46Z
TLE epoch observation values (Epoch: 2025-10-21T21:46:55.520Z)
Latitude
Longitude
-100.65394°
Altitude
491.688 km
Speed
7.624 km/s
True Right ascension
17h 06m 39s
True Declination
0° 00' 00"
Sunlit
Object was in daylight at epoch
Visualization orbit readout
Latitude
Unknown
Longitude
Unknown
Altitude
Unknown
Speed
Unknown
Apparent Right ascension
Unknown
Apparent Declination
Unknown
Sunlit
N/A
Visualization observer readout
Local Sidereal Time
03:18:32
Azimuth
Unknown
Elevation
Unknown
Doppler factor
Unknown
Orbital elements
Apogee altitude
504.139 km
Perigee altitude
495.828 km
Semi-major axis
6,878.12 km
Eccentricity
0.0006
Inclination
34.9964°
RAAN
256.6662°
Arg. of periapsis
342.1559°
True anomaly
17.91559°
Mean anomaly
17.8943°
Eccentric anomaly
17.90494°
Mean motion
3.80486 °/min
Orbital period
94.62 mins
BSTAR
0.00024128
Loading maneuver chart data...
Computing Atmospheric mass density...
Loading historical data...
Loading historical data...
Loading historical data...
Loading historical data...
Loading historical data...
Loading historical data...
Loading historical data...
Other satellites on launch #190 in the year 2024 (2024-10-23 UTC)

Documentation

Showing up to 5 results
|